Location: French Creek State Gamelands
(40.1750°N, 75.7969°W)
Time: 18:10:57
(UTC-04:00)

ISS - All Passes

Search period start: 23 July 2014 00:00
Search period end: 02 August 2014 00:00
Orbit: 411 x 420 km, 51.6° (Epoch: 23 July)

Date Brightness Start Highest point End Pass type
(mag) Time Alt. Az. Time Alt. Az. Time Alt. Az.
23 Jul - 02:09:42 10° SW 02:13:00 62° SE 02:16:20 10° ENE visible
23 Jul - 03:47:16 10° WNW 03:49:58 22° NNW 03:52:41 10° NNE visible
23 Jul - 05:26:19 10° NNW 05:27:40 12° N 05:29:01 10° NNE daylight
23 Jul - 07:03:05 10° NNW 07:05:27 18° NNE 07:07:48 10° ENE daylight
23 Jul - 08:39:15 10° NW 08:42:37 78° NE 08:45:58 10° ESE daylight
23 Jul - 10:17:47 10° WSW 10:18:53 11° SW 10:19:59 10° SSW daylight
24 Jul - 01:21:16 10° SSW 01:24:19 33° SE 01:27:23 10° ENE visible
24 Jul - 02:58:00 10° W 03:01:02 31° NNW 03:04:05 10° NE visible
24 Jul - 04:36:59 10° NW 04:38:35 13° N 04:40:11 10° NNE visible
24 Jul - 06:14:29 10° NNW 06:16:25 14° NNE 06:18:22 10° NE daylight
24 Jul - 07:50:32 10° NW 07:53:48 45° NNE 07:57:02 10° ESE daylight
24 Jul - 09:27:46 10° W 09:30:18 20° SW 09:32:50 10° S daylight
25 Jul - 00:33:15 10° S 00:35:41 19° SE 00:38:08 10° E night (unlit)
25 Jul - 02:08:55 10° WSW 02:12:10 47° NNW 02:15:26 10° NE visible
25 Jul - 03:47:33 10° NW 03:49:31 15° NNW 03:51:30 10° NNE visible
25 Jul - 05:25:48 10° NNW 05:27:22 13° N 05:28:55 10° NE visible
25 Jul - 07:01:54 10° NW 07:04:55 30° NNE 07:07:55 10° E daylight
25 Jul - 08:38:33 10° WNW 08:41:40 35° SW 08:44:45 10° SSE daylight
25 Jul - 23:46:21 10° SE 23:47:07 11° SE 23:47:52 10° ESE night (unlit)
26 Jul - 01:20:00 10° SW 01:23:21 82° NW 01:26:43 10° NE visible
26 Jul - 02:58:06 10° WNW 03:00:30 18° NNW 03:02:54 10° NNE visible
26 Jul - 04:36:56 10° NNW 04:38:16 12° N 04:39:37 10° NNE visible
26 Jul - 06:13:18 10° NNW 06:15:59 21° NNE 06:18:39 10° ENE daylight
26 Jul - 07:49:37 10° WNW 07:52:58 66° SW 07:56:17 10° SE daylight
27 Jul - 00:31:20 10° SW 00:34:36 55° SE 00:37:54 10° ENE visible
27 Jul - 02:08:45 10° W 02:11:31 23° NNW 02:14:18 10° NNE visible
27 Jul - 03:47:48 10° NNW 03:49:11 12° N 03:50:33 10° NNE visible
27 Jul - 05:24:42 10° NNW 05:26:59 17° NNE 05:29:15 10° ENE visible
27 Jul - 07:00:50 10° NW 07:04:12 70° NE 07:07:32 10° ESE daylight
27 Jul - 08:38:57 10° W 08:40:30 13° SW 08:42:03 10° SSW daylight
27 Jul - 23:42:57 10° SSW 23:45:55 30° SE 23:48:53 10° ENE night (unlit)
28 Jul - 01:19:31 10° W 01:22:35 33° NNW 01:25:41 10° NE visible
28 Jul - 02:58:26 10° NW 03:00:06 13° N 03:01:45 10° NNE visible
28 Jul - 04:36:05 10° NNW 04:37:56 14° NNE 04:39:48 10° NE visible
28 Jul - 06:12:08 10° NW 06:15:21 41° NNE 06:18:34 10° ESE daylight
28 Jul - 07:49:13 10° W 07:51:54 22° SW 07:54:35 10° S daylight
28 Jul - 22:55:02 10° S 22:57:17 17° SE 22:59:32 10° E night (unlit)
29 Jul - 00:30:26 10° WSW 00:33:43 52° NNW 00:37:01 10° NE visible
29 Jul - 02:08:59 10° NW 02:11:02 15° NNW 02:13:05 10° NNE visible
29 Jul - 03:47:22 10° NNW 03:48:52 12° N 03:50:22 10° NNE visible
29 Jul - 05:23:30 10° NW 05:26:27 28° NNE 05:29:24 10° E visible
29 Jul - 07:00:04 10° WNW 07:03:15 40° SW 07:06:24 10° SSE daylight
29 Jul - 23:41:34 10° SW 23:44:54 89° SE 23:48:16 10° NE night (unlit)
30 Jul - 01:19:33 10° WNW 01:22:00 19° NNW 01:24:29 10° NNE visible
30 Jul - 02:58:27 10° NNW 02:59:46 12° N 03:01:05 10° NNE visible
30 Jul - 04:34:53 10° NNW 04:37:29 20° NNE 04:40:05 10° ENE visible
30 Jul - 06:11:09 10° NW 06:14:31 74° SW 06:17:52 10° SE daylight
30 Jul - 22:52:56 10° SSW 22:56:09 48° SE 22:59:24 10° ENE night (unlit)
31 Jul - 00:30:12 10° W 00:33:02 25° NNW 00:35:52 10° NNE visible
31 Jul - 02:09:15 10° NNW 02:10:40 12° N 02:12:04 10° NNE visible
31 Jul - 03:46:17 10° NNW 03:48:29 16° NNE 03:50:40 10° ENE visible
31 Jul - 05:22:23 10° NW 05:25:44 62° NE 05:29:03 10° ESE visible
31 Jul - 07:00:12 10° W 07:02:05 14° SW 07:03:57 10° SSW daylight
31 Jul - 22:04:37 10° SSW 22:07:28 27° SE 22:10:21 10° ENE night (unlit)
31 Jul - 23:40:59 10° W 23:44:06 36° NNW 23:47:14 10° NE night (unlit)
01 Aug - 01:19:51 10° NW 01:21:34 13° N 01:23:18 10° NNE visible
01 Aug - 02:57:38 10° NNW 02:59:25 14° N 03:01:12 10° NE visible
01 Aug - 04:33:41 10° NW 04:36:52 38° NNE 04:40:02 10° E visible
01 Aug - 06:10:39 10° WNW 06:13:28 25° SW 06:16:16 10° S daylight
01 Aug - 21:16:50 10° SSE 21:18:51 15° SE 21:20:52 10° E visible
01 Aug - 22:51:56 10° WSW 22:55:14 58° NW 22:58:33 10° NE visible
